Find Local Weather

World > North America > United States > New Jersey

Fairfield, New Jersey Regional Weather

Lat: 40.88N, Lon: 74.31W
Wx Zone: NJZ105
Feedback
Expires:201805232100;;419153
ASUS41 KOKX 232005
RWROKX

Regional Weather Roundup
National Weather Service New York NY
400 PM EDT WED MAY 23 2018

Note: "FAIR" indicates few or no clouds below 12,000 feet with no
significant weather and/or obstructions to visibility.


NJZ001-105-106-008-010-013-015-019>022-104-232100-
New Jersey
  
CITY           SKY/WX    TMP DP  RH WIND       PRES   REMARKS
Newark/Liberty FAIR      81  53  37 NW16G25   29.94S                  
Teterboro      FAIR      80  55  42 NW10      29.92F                  
Caldwell       FAIR      79  52  38 NW8       29.95F                  
Somerville     FAIR      79  55  43 NW10      29.94F                  
Linden         FAIR      79  55  43 NW12      29.95S                  
Perth Amboy      N/A     75 N/A N/A NW9         N/A                   
Sussex         FAIR      79  55  43 VRB7      29.96F                  
Andover          N/A     78  53  41 VRB6G18   29.97F                  
Trenton        FAIR      78  56  46 N13       29.96S                  
Millville      PTSUNNY   80  63  55 NW8       29.96F                  
Atlantic City  FAIR      84  62  47 NW16      29.94S                  
Wrightstown    FAIR      79  61  53 N15       29.93                   
Toms River     PTSUNNY   80  62  54 NW14      29.95S                  
Belmar         FAIR      79  58  48 W10G18    29.96S                  
$$
 

SKY/WX - Weather  TMP - Temperature  DP - Dewpoint  RH - Relative Humidity
WIND - Wind Direction/Speed PRES - Barometric Pressure